| time (UTC) | temp C | wind direction | speed KPH | gust KPH | rain 1hr cm | rain 24hr cm | rain mn cm | humidity % | barometer mb |
| 20260903025454 | 24 | 249 | 0.0 | 0.0 | 0.00 | 0.00 | 0.00 | 88 | 1015.8 |
| 20260903024947 | 24 | 249 | 0.0 | 0.0 | 0.00 | 0.00 | 0.00 | 88 | 1015.8 |
| 20260903024446 | 24 | 249 | 0.0 | 0.0 | 0.00 | 0.00 | 0.00 | 88 | 1015.9 |
| 20260903024214 | 24 | 249 | 0.0 | 0.0 | 0.00 | 0.00 | 0.00 | 88 | 1016.0 |
| 20260903023442 | 25 | 249 | 0.0 | 0.0 | 0.00 | 0.00 | 0.00 | 87 | 1016.0 |
| 20260903022941 | 25 | 249 | 0.0 | 0.0 | 0.00 | 0.00 | 0.00 | 87 | 1016.0 |
| 20260903022436 | 25 | 249 | 0.0 | 0.0 | 0.00 | 0.00 | 0.00 | 87 | 1016.0 |
| 20260903021934 | 25 | 249 | 0.0 | 0.0 | 0.00 | 0.00 | 0.00 | 87 | 1016.0 |
| 20260903021433 | 25 | 249 | 0.0 | 0.0 | 0.00 | 0.00 | 0.00 | 86 | 1016.0 |
| 20260903020929 | 25 | 249 | 0.0 | 0.0 | 0.00 | 0.00 | 0.00 | 86 | 1016.0 |
| 20260903020429 | 25 | 249 | 0.0 | 3.2 | 0.00 | 0.00 | 0.00 | 86 | 1015.9 |
| 20260903015923 | 25 | 249 | 0.0 | 3.2 | 0.00 | 0.00 | 0.00 | 87 | 1015.9 |
| 20260903015422 | 25 | 249 | 1.6 | 3.2 | 0.00 | 0.00 | 0.00 | 85 | 1015.9 |
| 20260903014921 | 25 | 250 | 0.0 | 3.2 | 0.00 | 0.00 | 0.00 | 85 | 1015.9 |
| 20260903014417 | 25 | 250 | 0.0 | 3.2 | 0.00 | 0.00 | 0.00 | 85 | 1015.8 |
| 20260903013918 | 25 | 250 | 0.0 | 3.2 | 0.00 | 0.00 | 0.00 | 84 | 1015.7 |
| 20260903013411 | 25 | 251 | 0.0 | 1.6 | 0.00 | 0.00 | 0.00 | 83 | 1015.7 |
| 20260903012914 | 25 | 251 | 0.0 | 3.2 | 0.00 | 0.00 | 0.00 | 83 | 1015.7 |
| 20260903012642 | 25 | 251 | 0.0 | 3.2 | 0.00 | 0.00 | 0.00 | 83 | 1015.7 |
| 20260903011911 | 25 | 253 | 0.0 | 1.6 | 0.00 | 0.00 | 0.00 | 83 | 1015.7 |
| 20260903011644 | 26 | 253 | 0.0 | 3.2 | 0.00 | 0.00 | 0.00 | 83 | 1015.6 |
| 20260903010914 | 26 | 253 | 0.0 | 3.2 | 0.00 | 0.00 | 0.00 | 82 | 1015.5 |
| 20260903010408 | 26 | 253 | 0.0 | 3.2 | 0.00 | 0.00 | 0.00 | 81 | 1015.5 |
| 20260903005907 | 26 | 253 | 0.0 | 3.2 | 0.00 | 0.00 | 0.00 | 80 | 1015.5 |
| 20260903005408 | 26 | 252 | 0.0 | 3.2 | 0.00 | 0.00 | 0.00 | 80 | 1015.5 |
| 20260903004907 | 26 | 253 | 0.0 | 1.6 | 0.00 | 0.00 | 0.00 | 80 | 1015.4 |
| 20260903004405 | 26 | 253 | 0.0 | 3.2 | 0.00 | 0.00 | 0.00 | 80 | 1015.5 |
| 20260903003905 | 26 | 253 | 0.0 | 3.2 | 0.00 | 0.00 | 0.00 | 79 | 1015.4 |
| 20260903003359 | 27 | 253 | 0.0 | 1.6 | 0.00 | 0.00 | 0.00 | 78 | 1015.4 |
| 20260903002857 | 27 | 253 | 0.0 | 1.6 | 0.00 | 0.00 | 0.00 | 77 | 1015.4 |
| 20260903002356 | 27 | 253 | 0.0 | 1.6 | 0.00 | 0.00 | 0.00 | 77 | 1015.3 |
| 20260903001854 | 27 | 253 | 0.0 | 3.2 | 0.00 | 0.00 | 0.00 | 76 | 1015.4 |
| 20260903001623 | 27 | 253 | 0.0 | 3.2 | 0.00 | 0.00 | 0.00 | 76 | 1015.4 |
| 20260903000853 | 27 | 253 | 1.6 | 4.8 | 0.00 | 0.00 | 0.00 | 76 | 1015.4 |
| 20260903000352 | 27 | 254 | 1.6 | 8.0 | 0.00 | 0.00 | 0.00 | 75 | 1015.4 |
| 20260902235857 | 28 | 254 | 3.2 | 8.0 | 0.00 | 0.00 | 0.00 | 76 | 1015.4 |
| 20260902235350 | 28 | 225 | 3.2 | 9.7 | 0.00 | 0.00 | 0.00 | 75 | 1015.3 |
| 20260902234847 | 28 | 239 | 1.6 | 9.7 | 0.00 | 0.00 | 0.00 | 75 | 1015.3 |
| 20260902234347 | 28 | 223 | 1.6 | 8.0 | 0.00 | 0.00 | 0.00 | 74 | 1015.3 |
| 20260902233844 | 28 | 229 | 3.2 | 14.5 | 0.00 | 0.00 | 0.00 | 74 | 1015.3 |
| 20260902233343 | 28 | 229 | 3.2 | 14.5 | 0.00 | 0.00 | 0.00 | 73 | 1015.2 |
| 20260902232841 | 29 | 196 | 3.2 | 9.7 | 0.00 | 0.00 | 0.00 | 73 | 1015.2 |
| 20260902232612 | 29 | 266 | 3.2 | 12.9 | 0.00 | 0.00 | 0.00 | 72 | 1015.2 |
| 20260902231846 | 29 | 250 | 3.2 | 12.9 | 0.00 | 0.00 | 0.00 | 72 | 1015.2 |
| 20260902231841 | 29 | 293 | 3.2 | 12.9 | 0.00 | 0.00 | 0.00 | 72 | 1015.2 |
| 20260902230836 | 30 | 254 | 3.2 | 12.9 | 0.00 | 0.00 | 0.00 | 71 | 1015.2 |
| 20260902230335 | 30 | 248 | 3.2 | 11.3 | 0.00 | 0.00 | 0.00 | 71 | 1015.2 |
| 20260902225834 | 30 | 221 | 4.8 | 12.9 | 0.00 | 0.00 | 0.00 | 70 | 1015.2 |
| 20260902225335 | 30 | 209 | 4.8 | 14.5 | 0.00 | 0.00 | 0.00 | 70 | 1015.2 |
| 20260902224835 | 30 | 205 | 4.8 | 14.5 | 0.00 | 0.00 | 0.00 | 67 | 1015.2 |
| 20260902224336 | 30 | 250 | 4.8 | 14.5 | 0.00 | 0.00 | 0.00 | 68 | 1015.2 |
| 20260902223833 | 30 | 271 | 3.2 | 14.5 | 0.00 | 0.00 | 0.00 | 69 | 1015.2 |
| 20260902223333 | 30 | 223 | 4.8 | 12.9 | 0.00 | 0.00 | 0.00 | 68 | 1015.3 |
| 20260902222834 | 30 | 205 | 4.8 | 12.9 | 0.00 | 0.00 | 0.00 | 69 | 1015.3 |
| 20260902222603 | 31 | 250 | 4.8 | 14.5 | 0.00 | 0.00 | 0.00 | 67 | 1015.4 |
| 20260902221829 | 31 | 231 | 4.8 | 14.5 | 0.00 | 0.00 | 0.00 | 67 | 1015.4 |
| 20260902221330 | 31 | 234 | 4.8 | 12.9 | 0.00 | 0.00 | 0.00 | 67 | 1015.4 |
| 20260902220827 | 31 | 286 | 4.8 | 17.7 | 0.00 | 0.00 | 0.00 | 66 | 1015.3 |
| 20260902220326 | 31 | 241 | 4.8 | 17.7 | 0.00 | 0.00 | 0.00 | 67 | 1015.4 |
| 20260902215828 | 31 | 212 | 4.8 | 14.5 | 0.00 | 0.00 | 0.00 | 67 | 1015.3 |
| 20260902215327 | 31 | 179 | 6.4 | 14.5 | 0.00 | 0.00 | 0.00 | 66 | 1015.3 |
| 20260902214824 | 31 | 219 | 6.4 | 14.5 | 0.00 | 0.00 | 0.00 | 65 | 1015.3 |
| 20260902214600 | 31 | 224 | 4.8 | 14.5 | 0.00 | 0.00 | 0.00 | 66 | 1015.3 |
| 20260902214322 | 31 | 169 | 4.8 | 14.5 | 0.00 | 0.00 | 0.00 | 65 | 1015.4 |
| 20260902213319 | 31 | 241 | 3.2 | 12.9 | 0.00 | 0.00 | 0.00 | 65 | 1015.4 |
| 20260902212820 | 31 | 182 | 4.8 | 11.3 | 0.00 | 0.00 | 0.00 | 65 | 1015.5 |
| 20260902212319 | 31 | 205 | 6.4 | 17.7 | 0.00 | 0.00 | 0.00 | 65 | 1015.5 |
| 20260902211819 | 31 | 225 | 6.4 | 17.7 | 0.00 | 0.00 | 0.00 | 64 | 1015.4 |
| 20260902211549 | 31 | 254 | 6.4 | 22.5 | 0.00 | 0.00 | 0.00 | 64 | 1015.5 |
| 20260902210820 | 32 | 302 | 4.8 | 22.5 | 0.00 | 0.00 | 0.00 | 64 | 1015.5 |
| 20260902210550 | 32 | 285 | 4.8 | 14.5 | 0.00 | 0.00 | 0.00 | 62 | 1015.5 |
| 20260902210047 | 32 | 244 | 4.8 | 16.1 | 0.00 | 0.00 | 0.00 | 62 | 1015.5 |
| 20260902205317 | 32 | 243 | 4.8 | 16.1 | 0.00 | 0.00 | 0.00 | 61 | 1015.6 |
| 20260902205046 | 32 | 194 | 6.4 | 12.9 | 0.00 | 0.00 | 0.00 | 59 | 1015.6 |
| 20260902204545 | 32 | 192 | 6.4 | 16.1 | 0.00 | 0.00 | 0.00 | 60 | 1015.7 |
| 20260902203817 | 32 | 184 | 4.8 | 16.1 | 0.00 | 0.00 | 0.00 | 59 | 1015.7 |
| 20260902203316 | 32 | 196 | 6.4 | 19.3 | 0.00 | 0.00 | 0.00 | 59 | 1015.8 |
| 20260902202815 | 32 | 275 | 6.4 | 19.3 | 0.00 | 0.00 | 0.00 | 59 | 1015.8 |
| 20260902202315 | 32 | 236 | 4.8 | 14.5 | 0.00 | 0.00 | 0.00 | 60 | 1015.9 |
| 20260902201817 | 33 | 218 | 6.4 | 14.5 | 0.00 | 0.00 | 0.00 | 61 | 1016.0 |
| 20260902201315 | 33 | 275 | 6.4 | 16.1 | 0.00 | 0.00 | 0.00 | 58 | 1016.0 |
| 20260902200816 | 33 | 268 | 6.4 | 20.9 | 0.00 | 0.00 | 0.00 | 58 | 1016.1 |
| 20260902200316 | 33 | 214 | 6.4 | 20.9 | 0.00 | 0.00 | 0.00 | 59 | 1016.1 |
| 20260902195815 | 33 | 252 | 6.4 | 17.7 | 0.00 | 0.00 | 0.00 | 58 | 1016.2 |
| 20260902195315 | 33 | 176 | 6.4 | 17.7 | 0.00 | 0.00 | 0.00 | 56 | 1016.3 |
| 20260902194811 | 33 | 217 | 4.8 | 14.5 | 0.00 | 0.00 | 0.00 | 55 | 1016.4 |
| 20260902194310 | 33 | 239 | 4.8 | 12.9 | 0.00 | 0.00 | 0.00 | 58 | 1016.4 |
| 20260902193811 | 33 | 203 | 6.4 | 14.5 | 0.00 | 0.00 | 0.00 | 58 | 1016.4 |
| 20260902193312 | 33 | 294 | 4.8 | 14.5 | 0.00 | 0.00 | 0.00 | 55 | 1016.5 |
| 20260902192811 | 33 | 265 | 4.8 | 14.5 | 0.00 | 0.00 | 0.00 | 58 | 1016.4 |
| 20260902192313 | 33 | 199 | 4.8 | 14.5 | 0.00 | 0.00 | 0.00 | 56 | 1016.5 |
| 20260902191807 | 33 | 234 | 4.8 | 16.1 | 0.00 | 0.00 | 0.00 | 56 | 1016.5 |
| 20260902191539 | 33 | 216 | 6.4 | 16.1 | 0.00 | 0.00 | 0.00 | 59 | 1016.5 |
| 20260902190808 | 33 | 244 | 6.4 | 16.1 | 0.00 | 0.00 | 0.00 | 56 | 1016.6 |
| 20260902190306 | 33 | 157 | 6.4 | 16.1 | 0.00 | 0.00 | 0.00 | 56 | 1016.7 |
| 20260902185807 | 33 | 213 | 6.4 | 17.7 | 0.00 | 0.00 | 0.00 | 55 | 1016.7 |
| 20260902185308 | 33 | 193 | 8.0 | 22.5 | 0.00 | 0.00 | 0.00 | 58 | 1016.7 |
| 20260902185034 | 33 | 207 | 8.0 | 22.5 | 0.00 | 0.00 | 0.00 | 56 | 1016.7 |
| 20260902184302 | 33 | 218 | 8.0 | 19.3 | 0.00 | 0.00 | 0.00 | 56 | 1016.7 |
| 20260902183807 | 32 | 199 | 6.4 | 16.1 | 0.00 | 0.00 | 0.00 | 61 | 1016.8 |
| 20260902183802 | 33 | 173 | 6.4 | 14.5 | 0.00 | 0.00 | 0.00 | 57 | 1016.8 |
| 20260902182804 | 32 | 211 | 6.4 | 16.1 | 0.00 | 0.00 | 0.00 | 61 | 1017.0 |
| 20260902182306 | 32 | 270 | 4.8 | 16.1 | 0.00 | 0.00 | 0.00 | 65 | 1017.1 |
| 20260902181802 | 32 | 247 | 4.8 | 11.3 | 0.00 | 0.00 | 0.00 | 65 | 1017.0 |
| 20260902181302 | 32 | 243 | 4.8 | 11.3 | 0.00 | 0.00 | 0.00 | 66 | 1017.0 |
| 20260902180802 | 32 | 255 | 4.8 | 19.3 | 0.00 | 0.00 | 0.00 | 61 | 1017.0 |
| 20260902180255 | 32 | 252 | 6.4 | 19.3 | 0.00 | 0.00 | 0.00 | 63 | 1017.1 |
| 20260902175756 | 32 | 278 | 6.4 | 14.5 | 0.00 | 0.00 | 0.00 | 62 | 1017.1 |
| 20260902175254 | 32 | 187 | 6.4 | 17.7 | 0.00 | 0.00 | 0.00 | 60 | 1017.1 |
| 20260902175021 | 33 | 173 | 4.8 | 17.7 | 0.00 | 0.00 | 0.00 | 62 | 1017.2 |
| 20260902174251 | 33 | 195 | 3.2 | 11.3 | 0.00 | 0.00 | 0.00 | 61 | 1017.2 |
| 20260902173749 | 32 | 275 | 6.4 | 16.1 | 0.00 | 0.00 | 0.00 | 62 | 1017.3 |
| 20260902173243 | 32 | 293 | 6.4 | 17.7 | 0.00 | 0.00 | 0.00 | 61 | 1017.4 |
| 20260902172743 | 33 | 265 | 4.8 | 17.7 | 0.00 | 0.00 | 0.00 | 59 | 1017.5 |
| 20260902172238 | 33 | 264 | 4.8 | 14.5 | 0.00 | 0.00 | 0.00 | 62 | 1017.5 |
| 20260902171736 | 33 | 252 | 6.4 | 14.5 | 0.00 | 0.00 | 0.00 | 61 | 1017.6 |
| 20260902171237 | 32 | 246 | 4.8 | 16.1 | 0.00 | 0.00 | 0.00 | 63 | 1017.6 |
| 20260902171002 | 32 | 271 | 6.4 | 20.9 | 0.00 | 0.00 | 0.00 | 63 | 1017.6 |
| 20260902170500 | 32 | 236 | 6.4 | 20.9 | 0.00 | 0.00 | 0.00 | 60 | 1017.7 |
| 20260902170343 | 32 | 245 | 4.8 | 12.9 | 0.00 | 0.00 | 0.00 | 64 | 1017.6 |
| 20260902165229 | 32 | 238 | 6.4 | 16.1 | 0.00 | 0.00 | 0.00 | 61 | 1017.7 |
| 20260902164729 | 32 | 236 | 6.4 | 16.1 | 0.00 | 0.00 | 0.00 | 63 | 1017.6 |
| 20260902164229 | 32 | 252 | 4.8 | 14.5 | 0.00 | 0.00 | 0.00 | 62 | 1017.7 |
| 20260902163955 | 32 | 211 | 4.8 | 14.5 | 0.00 | 0.00 | 0.00 | 63 | 1017.8 |
| 20260902163222 | 32 | 244 | 3.2 | 11.3 | 0.00 | 0.00 | 0.00 | 66 | 1017.8 |
| 20260902162723 | 32 | 212 | 4.8 | 12.9 | 0.00 | 0.00 | 0.00 | 64 | 1017.8 |
| 20260902162222 | 32 | 238 | 6.4 | 12.9 | 0.00 | 0.00 | 0.00 | 64 | 1017.7 |
| 20260902161722 | 32 | 262 | 6.4 | 12.9 | 0.00 | 0.00 | 0.00 | 65 | 1017.7 |
| 20260902161222 | 32 | 184 | 4.8 | 14.5 | 0.00 | 0.00 | 0.00 | 64 | 1017.7 |
| 20260902160723 | 32 | 174 | 4.8 | 14.5 | 0.00 | 0.00 | 0.00 | 64 | 1017.7 |
| 20260902160220 | 31 | 277 | 6.4 | 12.9 | 0.00 | 0.00 | 0.00 | 64 | 1017.8 |
| 20260902155718 | 31 | 260 | 6.4 | 12.9 | 0.00 | 0.00 | 0.00 | 64 | 1017.8 |
| 20260902155217 | 31 | 215 | 4.8 | 11.3 | 0.00 | 0.00 | 0.00 | 67 | 1017.8 |
| 20260902154947 | 31 | 240 | 3.2 | 11.3 | 0.00 | 0.00 | 0.00 | 67 | 1017.8 |
| 20260902154448 | 31 | 273 | 4.8 | 11.3 | 0.00 | 0.00 | 0.00 | 68 | 1017.9 |
| 20260902153718 | 31 | 225 | 6.4 | 16.1 | 0.00 | 0.00 | 0.00 | 67 | 1017.9 |
| 20260902153210 | 31 | 292 | 4.8 | 16.1 | 0.00 | 0.00 | 0.00 | 69 | 1018.1 |
| 20260902152710 | 30 | 269 | 3.2 | 11.3 | 0.00 | 0.00 | 0.00 | 69 | 1017.9 |
| 20260902152210 | 30 | 286 | 3.2 | 11.3 | 0.00 | 0.00 | 0.00 | 70 | 1017.9 |
| 20260902151710 | 30 | 268 | 3.2 | 12.9 | 0.00 | 0.00 | 0.00 | 72 | 1017.9 |
| 20260902151210 | 30 | 260 | 4.8 | 12.9 | 0.00 | 0.00 | 0.00 | 69 | 1017.9 |
| 20260902150711 | 30 | 279 | 3.2 | 9.7 | 0.00 | 0.00 | 0.00 | 71 | 1017.9 |
| 20260902150207 | 30 | 321 | 3.2 | 9.7 | 0.00 | 0.00 | 0.00 | 73 | 1017.9 |
| 20260902145704 | 29 | 238 | 4.8 | 12.9 | 0.00 | 0.00 | 0.00 | 72 | 1017.9 |
| 20260902145205 | 29 | 251 | 4.8 | 12.9 | 0.00 | 0.00 | 0.00 | 73 | 1017.9 |
| 20260902144706 | 28 | 268 | 4.8 | 12.9 | 0.00 | 0.00 | 0.00 | 76 | 1018.1 |
| 20260902144204 | 28 | 261 | 4.8 | 12.9 | 0.00 | 0.00 | 0.00 | 76 | 1018.1 |
| 20260902143706 | 28 | 211 | 6.4 | 14.5 | 0.00 | 0.00 | 0.00 | 75 | 1018.1 |
| 20260902143200 | 28 | 259 | 6.4 | 14.5 | 0.00 | 0.00 | 0.00 | 78 | 1017.9 |
| 20260902142701 | 27 | 252 | 4.8 | 14.5 | 0.00 | 0.00 | 0.00 | 79 | 1017.8 |
| 20260902142431 | 27 | 267 | 4.8 | 14.5 | 0.00 | 0.00 | 0.00 | 81 | 1017.8 |
| 20260902141700 | 27 | 237 | 4.8 | 14.5 | 0.00 | 0.00 | 0.00 | 80 | 1017.9 |
| 20260902141158 | 27 | 250 | 4.8 | 14.5 | 0.00 | 0.00 | 0.00 | 81 | 1017.8 |
| 20260902140659 | 27 | 298 | 4.8 | 14.5 | 0.00 | 0.00 | 0.00 | 84 | 1017.9 |
| 20260902140425 | 26 | 292 | 4.8 | 12.9 | 0.00 | 0.00 | 0.00 | 84 | 1017.8 |
| 20260902135652 | 26 | 265 | 4.8 | 12.9 | 0.00 | 0.00 | 0.00 | 83 | 1017.8 |
| 20260902135154 | 26 | 296 | 4.8 | 12.9 | 0.00 | 0.00 | 0.00 | 84 | 1017.8 |
| 20260902134652 | 26 | 239 | 4.8 | 11.3 | 0.00 | 0.00 | 0.00 | 84 | 1017.8 |
| 20260902134152 | 26 | 234 | 3.2 | 11.3 | 0.00 | 0.00 | 0.00 | 85 | 1017.9 |
| 20260902133653 | 25 | 248 | 4.8 | 11.3 | 0.00 | 0.00 | 0.00 | 87 | 1017.9 |
| 20260902133149 | 25 | 242 | 4.8 | 12.9 | 0.00 | 0.00 | 0.00 | 87 | 1017.9 |
| 20260902132648 | 25 | 249 | 3.2 | 12.9 | 0.00 | 0.00 | 0.00 | 88 | 1017.9 |
| 20260902132149 | 25 | 262 | 4.8 | 14.5 | 0.00 | 0.00 | 0.00 | 89 | 1017.9 |
| 20260902131648 | 25 | 276 | 4.8 | 14.5 | 0.00 | 0.00 | 0.00 | 90 | 1017.9 |
| 20260902131146 | 24 | 269 | 4.8 | 12.9 | 0.00 | 0.00 | 0.00 | 91 | 1017.9 |
| 20260902130647 | 24 | 227 | 3.2 | 12.9 | 0.00 | 0.00 | 0.00 | 91 | 1017.8 |
| 20260902130141 | 23 | 216 | 3.2 | 11.3 | 0.00 | 0.00 | 0.00 | 91 | 1017.8 |
| 20260902125639 | 23 | 232 | 3.2 | 9.7 | 0.00 | 0.00 | 0.00 | 91 | 1017.8 |
| 20260902125140 | 23 | 227 | 3.2 | 12.9 | 0.00 | 0.00 | 0.00 | 92 | 1017.8 |
| 20260902124911 | 23 | 248 | 4.8 | 12.9 | 0.00 | 0.00 | 0.00 | 92 | 1017.8 |
| 20260902124141 | 22 | 263 | 4.8 | 9.7 | 0.00 | 0.00 | 0.00 | 92 | 1017.8 |
| 20260902123643 | 22 | 240 | 3.2 | 9.7 | 0.00 | 0.00 | 0.00 | 92 | 1017.7 |
| 20260902123410 | 22 | 238 | 3.2 | 9.7 | 0.00 | 0.00 | 0.00 | 92 | 1017.7 |
| 20260902122638 | 22 | 241 | 1.6 | 6.4 | 0.00 | 0.00 | 0.00 | 92 | 1017.7 |
| 20260902122411 | 21 | 194 | 1.6 | 6.4 | 0.00 | 0.00 | 0.00 | 92 | 1017.7 |
| 20260902121637 | 21 | 239 | 1.6 | 6.4 | 0.00 | 0.00 | 0.00 | 92 | 1017.6 |
| 20260902121134 | 21 | 263 | 1.6 | 6.4 | 0.00 | 0.00 | 0.00 | 92 | 1017.6 |
| 20260902120634 | 21 | 220 | 1.6 | 6.4 | 0.00 | 0.00 | 0.00 | 92 | 1017.6 |
| 20260902120132 | 21 | 225 | 0.0 | 4.8 | 0.00 | 0.00 | 0.00 | 92 | 1017.5 |
| 20260902115900 | 21 | 225 | 1.6 | 4.8 | 0.00 | 0.00 | 0.00 | 92 | 1017.4 |
| 20260902115129 | 21 | 223 | 1.6 | 4.8 | 0.00 | 0.00 | 0.00 | 92 | 1017.4 |
| 20260902114627 | 21 | 238 | 1.6 | 3.2 | 0.00 | 0.00 | 0.00 | 92 | 1017.4 |
| 20260902114357 | 21 | 235 | 0.0 | 3.2 | 0.00 | 0.00 | 0.00 | 92 | 1017.4 |
| 20260902113857 | 21 | 235 | 0.0 | 3.2 | 0.00 | 0.00 | 0.00 | 92 | 1017.4 |
| 20260902113122 | 21 | 237 | 0.0 | 0.0 | 0.00 | 0.00 | 0.00 | 92 | 1017.3 |
| 20260902112620 | 21 | 238 | 0.0 | 0.0 | 0.00 | 0.00 | 0.00 | 92 | 1017.2 |
| 20260902112122 | 21 | 237 | 0.0 | 0.0 | 0.00 | 0.00 | 0.00 | 92 | 1017.2 |
| 20260902111621 | 21 | 237 | 0.0 | 0.0 | 0.00 | 0.00 | 0.00 | 92 | 1017.2 |
| 20260902111118 | 21 | 237 | 0.0 | 3.2 | 0.00 | 0.00 | 0.00 | 92 | 1017.2 |
| 20260902110619 | 21 | 238 | 1.6 | 4.8 | 0.00 | 0.00 | 0.00 | 92 | 1017.1 |
| 20260902110115 | 21 | 245 | 1.6 | 4.8 | 0.00 | 0.00 | 0.00 | 92 | 1017.1 |
| 20260902105616 | 21 | 248 | 0.0 | 3.2 | 0.00 | 0.00 | 0.00 | 92 | 1017.1 |
| 20260902105346 | 21 | 248 | 0.0 | 3.2 | 0.00 | 0.00 | 0.00 | 92 | 1017.2 |
| 20260902104613 | 21 | 250 | 1.6 | 4.8 | 0.00 | 0.00 | 0.00 | 92 | 1017.1 |
| 20260902104111 | 21 | 250 | 1.6 | 4.8 | 0.00 | 0.00 | 0.00 | 92 | 1017.1 |
| 20260902103611 | 21 | 254 | 1.6 | 3.2 | 0.00 | 0.00 | 0.00 | 92 | 1017.0 |
| 20260902103105 | 21 | 257 | 1.6 | 3.2 | 0.00 | 0.00 | 0.00 | 92 | 1017.0 |
| 20260902102606 | 21 | 257 | 0.0 | 3.2 | 0.00 | 0.00 | 0.00 | 92 | 1016.9 |
| 20260902102104 | 21 | 258 | 0.0 | 3.2 | 0.00 | 0.00 | 0.00 | 92 | 1016.9 |
| 20260902101603 | 21 | 259 | 0.0 | 0.0 | 0.00 | 0.00 | 0.00 | 92 | 1017.0 |
| 20260902101102 | 21 | 259 | 0.0 | 0.0 | 0.00 | 0.00 | 0.00 | 92 | 1017.0 |
| 20260902100604 | 21 | 259 | 0.0 | 0.0 | 0.00 | 0.00 | 0.00 | 92 | 1017.0 |
| 20260902100056 | 21 | 260 | 0.0 | 0.0 | 0.00 | 0.00 | 0.00 | 92 | 1017.1 |
| 20260902095555 | 21 | 260 | 0.0 | 0.0 | 0.00 | 0.00 | 0.00 | 92 | 1017.1 |
| 20260902095051 | 21 | 260 | 0.0 | 0.0 | 0.00 | 0.00 | 0.00 | 92 | 1017.1 |
| 20260902094550 | 21 | 260 | 0.0 | 0.0 | 0.00 | 0.00 | 0.00 | 92 | 1017.1 |
| 20260902094050 | 21 | 260 | 0.0 | 0.0 | 0.00 | 0.00 | 0.00 | 92 | 1017.0 |
| 20260902093546 | 21 | 260 | 0.0 | 0.0 | 0.00 | 0.00 | 0.00 | 92 | 1017.0 |
| 20260902093043 | 21 | 260 | 0.0 | 0.0 | 0.00 | 0.00 | 0.00 | 92 | 1017.0 |
| 20260902092543 | 21 | 260 | 0.0 | 0.0 | 0.00 | 0.00 | 0.00 | 92 | 1017.0 |
| 20260902092317 | 21 | 260 | 0.0 | 0.0 | 0.00 | 0.00 | 0.00 | 92 | 1016.8 |
| 20260902091544 | 21 | 261 | 0.0 | 0.0 | 0.00 | 0.00 | 0.00 | 92 | 1016.8 |
| 20260902091041 | 21 | 261 | 0.0 | 0.0 | 0.00 | 0.00 | 0.00 | 92 | 1016.9 |
| 20260902090541 | 21 | 261 | 0.0 | 0.0 | 0.00 | 0.00 | 0.00 | 92 | 1016.9 |
| 20260902090312 | 21 | 261 | 0.0 | 0.0 | 0.00 | 0.00 | 0.00 | 92 | 1016.8 |
| 20260902085539 | 21 | 261 | 0.0 | 0.0 | 0.00 | 0.00 | 0.00 | 92 | 1016.8 |
| 20260902085039 | 21 | 261 | 0.0 | 1.6 | 0.00 | 0.00 | 0.00 | 92 | 1016.9 |
| 20260902084540 | 21 | 261 | 0.0 | 1.6 | 0.00 | 0.00 | 0.00 | 92 | 1016.9 |
| 20260902084037 | 21 | 261 | 0.0 | 1.6 | 0.00 | 0.00 | 0.00 | 91 | 1016.7 |
| 20260902083538 | 21 | 260 | 0.0 | 1.6 | 0.00 | 0.00 | 0.00 | 91 | 1016.7 |
| 20260902083036 | 21 | 260 | 0.0 | 1.6 | 0.00 | 0.00 | 0.00 | 91 | 1016.7 |
| 20260902082811 | 21 | 260 | 0.0 | 0.0 | 0.00 | 0.00 | 0.00 | 91 | 1016.6 |
| 20260902082535 | 21 | 260 | 0.0 | 0.0 | 0.00 | 0.00 | 0.00 | 91 | 1016.6 |
| 20260902081536 | 21 | 260 | 0.0 | 1.6 | 0.00 | 0.00 | 0.00 | 91 | 1016.6 |
| 20260902081037 | 21 | 260 | 0.0 | 1.6 | 0.00 | 0.00 | 0.00 | 91 | 1016.5 |
| 20260902080536 | 21 | 260 | 0.0 | 0.0 | 0.00 | 0.00 | 0.00 | 91 | 1016.6 |
| 20260902080036 | 21 | 260 | 0.0 | 0.0 | 0.00 | 0.00 | 0.00 | 91 | 1016.5 |
| 20260902075807 | 22 | 260 | 0.0 | 0.0 | 0.00 | 0.00 | 0.00 | 91 | 1016.5 |
| 20260902075307 | 22 | 260 | 0.0 | 0.0 | 0.00 | 0.00 | 0.00 | 91 | 1016.5 |
| 20260902074805 | 22 | 260 | 0.0 | 0.0 | 0.00 | 0.00 | 0.00 | 91 | 1016.5 |
| 20260902074031 | 22 | 260 | 0.0 | 1.6 | 0.00 | 0.00 | 0.00 | 91 | 1016.4 |
| 20260902073533 | 22 | 0 | 0.0 | 1.6 | 0.00 | 0.00 | 0.00 | 91 | 1016.5 |
| 20260902073032 | 22 | 261 | 0.0 | 0.0 | 0.00 | 0.00 | 0.00 | 91 | 1016.5 |
| 20260902072534 | 22 | 0 | 0.0 | 0.0 | 0.00 | 0.00 | 0.00 | 91 | 1016.6 |
| 20260902072309 | 22 | 0 | 0.0 | 0.0 | 0.00 | 0.00 | 0.00 | 91 | 1016.6 |
| 20260902071528 | 22 | 0 | 0.0 | 0.0 | 0.00 | 0.00 | 0.00 | 91 | 1016.5 |
| 20260902071027 | 22 | 0 | 0.0 | 0.0 | 0.00 | 0.00 | 0.00 | 91 | 1016.5 |
| 20260902070530 | 22 | 261 | 0.0 | 0.0 | 0.00 | 0.00 | 0.00 | 91 | 1016.5 |
| 20260902070030 | 22 | 261 | 0.0 | 0.0 | 0.00 | 0.00 | 0.00 | 91 | 1016.5 |
| 20260902065525 | 22 | 261 | 0.0 | 1.6 | 0.00 | 0.00 | 0.00 | 91 | 1016.6 |
| 20260902065026 | 22 | 261 | 0.0 | 1.6 | 0.00 | 0.00 | 0.00 | 91 | 1016.5 |
| 20260902064519 | 22 | 261 | 0.0 | 1.6 | 0.00 | 0.00 | 0.00 | 91 | 1016.5 |
| 20260902064019 | 22 | 261 | 0.0 | 1.6 | 0.00 | 0.00 | 0.00 | 91 | 1016.5 |
| 20260902063518 | 22 | 261 | 0.0 | 1.6 | 0.00 | 0.00 | 0.00 | 91 | 1016.5 |
| 20260902063017 | 22 | 261 | 0.0 | 4.8 | 0.00 | 0.00 | 0.00 | 91 | 1016.5 |
| 20260902063013 | 22 | 261 | 0.0 | 1.6 | 0.00 | 0.00 | 0.00 | 91 | 1016.5 |
| 20260902062011 | 22 | 261 | 1.6 | 4.8 | 0.00 | 0.00 | 0.00 | 91 | 1016.6 |
| 20260902061742 | 22 | 260 | 1.6 | 3.2 | 0.00 | 0.00 | 0.00 | 91 | 1016.5 |
| 20260902061014 | 22 | 258 | 1.6 | 4.8 | 0.00 | 0.00 | 0.00 | 91 | 1016.5 |
| 20260902060511 | 22 | 258 | 1.6 | 6.4 | 0.00 | 0.00 | 0.00 | 91 | 1016.4 |
| 20260902060008 | 22 | 214 | 1.6 | 6.4 | 0.00 | 0.00 | 0.00 | 91 | 1016.4 |
| 20260902055508 | 22 | 240 | 1.6 | 6.4 | 0.00 | 0.00 | 0.00 | 91 | 1016.5 |
| 20260902055005 | 22 | 254 | 1.6 | 6.4 | 0.00 | 0.00 | 0.00 | 91 | 1016.5 |
| 20260902054505 | 22 | 278 | 1.6 | 9.7 | 0.00 | 0.00 | 0.00 | 91 | 1016.4 |
| 20260902054006 | 22 | 262 | 1.6 | 9.7 | 0.00 | 0.00 | 0.00 | 91 | 1016.4 |
| 20260902053505 | 22 | 196 | 1.6 | 9.7 | 0.00 | 0.00 | 0.00 | 91 | 1016.4 |
| 20260902053007 | 22 | 244 | 0.0 | 3.2 | 0.00 | 0.00 | 0.00 | 91 | 1016.4 |
| 20260902052505 | 22 | 246 | 0.0 | 3.2 | 0.00 | 0.00 | 0.00 | 91 | 1016.3 |
| 20260902052237 | 22 | 248 | 0.0 | 0.0 | 0.00 | 0.00 | 0.00 | 91 | 1016.4 |
| 20260902051506 | 22 | 225 | 0.0 | 0.0 | 0.00 | 0.00 | 0.00 | 91 | 1016.4 |
| 20260902051001 | 22 | 222 | 0.0 | 0.0 | 0.00 | 0.00 | 0.00 | 91 | 1016.4 |
| 20260902050502 | 22 | 219 | 0.0 | 0.0 | 0.00 | 0.00 | 0.00 | 91 | 1016.4 |
| 20260902050004 | 23 | 220 | 0.0 | 0.0 | 0.00 | 0.00 | 0.00 | 90 | 1016.5 |
| 20260902045501 | 23 | 220 | 0.0 | 0.0 | 0.00 | 0.00 | 0.00 | 90 | 1016.5 |
| 20260902044959 | 23 | 219 | 0.0 | 0.0 | 0.00 | 0.00 | 0.00 | 90 | 1016.5 |
| 20260902044458 | 23 | 218 | 0.0 | 0.0 | 0.00 | 0.00 | 0.00 | 90 | 1016.5 |
| 20260902043954 | 23 | 215 | 0.0 | 0.0 | 0.00 | 0.00 | 0.00 | 90 | 1016.6 |
| 20260902043451 | 23 | 215 | 0.0 | 0.0 | 0.00 | 0.00 | 0.00 | 90 | 1016.6 |
| 20260902043221 | 23 | 215 | 0.0 | 0.0 | 0.00 | 0.00 | 0.00 | 90 | 1016.6 |
| 20260902042448 | 23 | 227 | 0.0 | 0.0 | 0.00 | 0.00 | 0.00 | 90 | 1016.6 |
| 20260902041948 | 23 | 227 | 0.0 | 0.0 | 0.00 | 0.00 | 0.00 | 90 | 1016.6 |
| 20260902041446 | 23 | 227 | 0.0 | 0.0 | 0.00 | 0.00 | 0.00 | 90 | 1016.6 |
| 20260902040943 | 23 | 227 | 0.0 | 0.0 | 0.00 | 0.00 | 0.00 | 90 | 1016.7 |
| 20260902040714 | 23 | 227 | 0.0 | 0.0 | 0.00 | 0.00 | 0.00 | 89 | 1016.7 |
| 20260902035942 | 23 | 227 | 0.0 | 0.0 | 0.00 | 0.00 | 0.00 | 89 | 1016.7 |
| 20260902035441 | 23 | 227 | 0.0 | 0.0 | 0.00 | 0.00 | 0.00 | 89 | 1016.7 |
| 20260902034940 | 23 | 227 | 0.0 | 0.0 | 0.00 | 0.00 | 0.00 | 89 | 1016.6 |
| 20260902034433 | 23 | 227 | 0.0 | 0.0 | 0.00 | 0.00 | 0.00 | 89 | 1016.7 |
| 20260902033933 | 23 | 227 | 0.0 | 0.0 | 0.00 | 0.00 | 0.00 | 89 | 1016.6 |
| 20260902033430 | 23 | 227 | 0.0 | 0.0 | 0.00 | 0.00 | 0.00 | 89 | 1016.6 |
| 20260902032928 | 23 | 227 | 0.0 | 0.0 | 0.00 | 0.00 | 0.00 | 89 | 1016.6 |
| 20260902032429 | 23 | 227 | 0.0 | 0.0 | 0.00 | 0.00 | 0.00 | 89 | 1016.6 |
| 20260902031926 | 23 | 227 | 0.0 | 0.0 | 0.00 | 0.00 | 0.00 | 89 | 1016.6 |
| 20260902031423 | 23 | 227 | 0.0 | 0.0 | 0.00 | 0.00 | 0.00 | 89 | 1016.6 |
| 20260902030924 | 23 | 227 | 0.0 | 0.0 | 0.00 | 0.00 | 0.00 | 89 | 1016.6 |
| 20260902030423 | 23 | 227 | 0.0 | 0.0 | 0.00 | 0.00 | 0.00 | 89 | 1016.6 |
| 20260902025920 | 23 | 227 | 0.0 | 0.0 | 0.00 | 0.00 | 0.00 | 88 | 1016.6 |